Location: Muenchen
(48.1800°N, 11.5800°E)
Time: 20:36:48
(UTC+02:00)

Iridium 36 - Visible Passes

Search period start: 22 July 2017 00:00
Search period end: 01 August 2017 00:00
Orbit: 771 x 775 km, 86.4° (Epoch: 21 July)

Date Brightness Start Highest point End Pass type
(mag) Time Alt. Az. Time Alt. Az. Time Alt. Az.
22 Jul 7.6 00:06:41 12° E 00:08:39 15° ENE 00:11:28 10° NE visible
22 Jul 5.5 01:47:04 48° SSW 01:48:33 81° W 01:53:47 10° N visible
22 Jul 7.7 03:28:01 10° W 03:30:05 12° WNW 03:32:09 10° NW visible
23 Jul 5.8 01:12:19 43° SE 01:13:42 57° E 01:18:48 10° N visible
23 Jul 7.2 02:52:41 17° WSW 02:54:43 21° WNW 02:58:39 10° NNW visible
24 Jul 6.6 00:37:33 28° ESE 00:38:58 32° E 00:43:34 10° NNE visible
24 Jul 6.5 02:17:56 29° WSW 02:19:32 36° WNW 02:24:20 10° NNW visible
25 Jul 7.3 00:02:47 17° E 00:04:23 19° ENE 00:07:56 10° NE visible
25 Jul 5.7 01:43:10 47° SW 01:44:29 63° W 01:49:40 10° N visible
25 Jul 7.8 23:28:58 10° E 23:29:56 10° ENE 23:30:52 10° ENE visible
26 Jul 5.5 01:08:23 53° SSE 01:09:34 74° E 01:14:46 10° N visible
26 Jul 7.5 02:48:46 14° W 02:50:49 17° WNW 02:54:08 10° NNW visible
27 Jul 6.2 00:33:37 36° ESE 00:34:47 41° E 00:39:39 10° NNE visible
27 Jul 6.8 02:13:59 24° WSW 02:15:33 28° WNW 02:20:02 10° NNW visible
27 Jul 6.9 23:58:50 22° ESE 00:00:08 24° E 00:04:14 10° NNE visible
28 Jul 6.0 01:39:12 41° WSW 01:40:26 49° W 01:45:30 10° N visible
28 Jul 7.5 23:24:03 12° E 23:25:38 14° ENE 23:28:09 10° NE visible
29 Jul 5.4 01:04:25 59° S 01:05:28 87° W 01:10:42 10° N visible
29 Jul 7.7 02:44:48 11° W 02:46:56 13° WNW 02:49:22 10° NW visible
30 Jul 5.8 00:29:38 46° SE 00:30:38 53° E 00:35:41 10° NNE visible
30 Jul 7.1 02:10:00 20° W 02:11:36 23° WNW 02:15:40 10° NNW visible
30 Jul 6.6 23:54:50 28° ESE 23:55:55 30° E 00:00:25 10° NNE visible
31 Jul 6.4 01:35:12 34° WSW 01:36:25 38° W 01:41:17 10° N visible
31 Jul 7.2 23:20:02 16° E 23:21:21 18° ENE 23:24:43 10° NE visible
